#timestamp,LO_Frequency,Hit 
1503561615.8,286046995.1,N
1503561635.7,286046996.1,N
1503561655.5,286046996.4,N
1503561675.3,286046995.1,P
1503561695.2,286047000.7,N
1503561715.0,286046998.6,N
1503561715.9,286046998.6,N
1503561735.7,286046996.6,N
1503561755.6,286046996.8,N
1503561775.4,286046996.7,N
1503561795.2,286046997.2,N
1503561815.1,286046997.1,N
1503561816.0,286046997.1,N
1503561835.8,286046997.6,N
1503561855.6,286046997.9,N
1503561875.5,286046995.8,P
1503561895.3,286046999.1,N
1503561915.1,286046999.5,N
1503561935.9,286046996.5,N
1503561955.7,286046997.5,N
1503561975.5,286046995.5,P
1503561995.4,286046999.2,N
1503562015.2,286046998.9,N
1503562035.0,286046999.3,N
1503562035.9,286046999.3,N
1503562055.8,286046998.1,N
1503562075.6,286046998.6,N
1503562095.4,286046999.3,N
1503562115.3,286046998.8,N
1503562135.1,286046995.3,P
1503562155.8,286046999.4,N
1503562175.7,286046999.0,N
1503562195.5,286046998.9,N
1503562215.3,286046997.4,N
1503562235.2,286046997.6,N
1503562255.9,286046997.5,N
1503562275.7,286046995.8,P
1503562295.6,286046997.1,N
1503562315.4,286046998.0,N
1503562335.2,286046995.1,P
1503562355.1,286046999.6,N
1503562356.0,286046999.6,N
1503562375.8,286046998.5,N
1503562395.6,286047001.2,N
1503562415.5,286047001.1,N
1503562435.3,286046999.1,N
1503562455.1,286046999.6,N
1503562475.9,286046998.5,N
1503562495.7,286046998.7,N
1503562515.5,286046998.4,N
1503562535.3,286046998.2,N
1503562555.2,286047000.5,N
1503562575.0,286046998.9,N
1503562575.9,286046998.9,N
1503562595.7,286046997.8,N
1503562615.6,286046996.7,N
1503562635.4,286046995.3,P
1503562655.2,286046995.8,N
1503562675.1,286046995.4,P
1503562676.0,286046995.4,P
1503562695.8,286046999.7,N
1503562715.7,286047001.4,N
1503562735.5,286047004.0,N
1503562755.3,286047002.2,N
1503562775.1,286047000.5,N
1503562795.9,286046996.7,N
1503562815.7,286046999.0,N
1503562835.5,286047000.4,N
1503562855.4,286046999.2,N
1503562875.2,286046997.0,N
1503562895.0,286046999.5,N
1503562895.9,286046999.5,N
1503562915.8,286046996.9,N
1503562935.6,286046995.1,N
1503562955.4,286046995.1,N
1503562975.2,286046996.3,N
1503562995.1,286046997.8,N
1503562996.0,286046997.8,N
1503563015.8,286046995.7,N
1503563035.6,286046997.6,N
1503563055.5,286046999.2,N
1503563075.3,286047000.7,N
1503563095.1,286046999.1,N
1503563115.9,286046996.9,N
1503563135.7,286046998.4,N
1503563155.5,286046998.3,N
1503563175.4,286046999.2,N
1503563195.2,286046995.5,N
1503563215.0,286046993.7,N
1503563215.9,286046993.7,N
1503563235.8,286046993.3,N
1503563255.6,286046994.2,N
1503563275.4,286046992.7,N
1503563295.3,286046992.3,P
1503563315.1,286046995.3,N
1503563316.0,286046995.3,N
1503563335.8,286046995.1,N
1503563355.7,286046993.4,P
1503563375.5,286047000.3,N
1503563395.3,286046999.5,N
1503563415.2,286046996.6,N
1503563435.9,286046999.1,N
1503563455.7,286046999.5,N
1503563475.6,286046999.0,N
1503563495.4,286046997.2,N
1503563515.2,286046997.5,N
1503563535.1,286046995.7,N
1503563536.0,286046995.7,N
1503563555.8,286046997.5,N
1503563575.6,286046996.5,N
1503563595.4,286046999.4,N
1503563615.3,286046997.7,N
1503563635.1,286046995.8,N
1503563655.9,286046994.3,P
1503563675.7,286046995.7,N
1503563695.5,286046997.7,N
1503563715.4,286046993.7,P
1503563735.2,286047000.3,N
1503563755.0,286047001.1,N
1503563755.9,286047001.1,N
1503563775.8,286046999.2,N
1503563795.6,286046999.0,N
1503563815.4,286046996.5,N
1503563835.2,286046997.6,N
1503563855.1,286046995.9,N
1503563856.0,286046995.9,N
1503563875.8,286046993.7,N
1503563895.6,286046996.3,N
1503563915.5,286046994.0,N
1503563935.3,286046996.3,N
1503563955.1,286046996.1,N
1503563975.9,286046995.7,N
1503563995.7,286046993.9,N
1503564015.5,286046993.5,N
1503564035.4,286046995.3,N
1503564055.2,286046996.2,N
1503564075.0,286046995.0,N
1503564075.9,286046995.0,N
1503564095.8,286046999.6,N
1503564115.6,286046999.4,N
1503564135.4,286046998.4,N
1503564155.2,286046999.4,N
1503564175.1,286046997.1,N
1503564176.0,286046997.1,N
1503564195.8,286046999.5,N
1503564215.6,286046996.9,N
1503564235.5,286046996.6,N
1503564255.3,286046995.6,N
1503564275.1,286046996.3,N
1503564295.9,286046995.8,N
1503564315.7,286046996.4,N
1503564335.5,286046993.1,P
1503564355.4,286046996.1,N
1503564375.2,286046994.2,P
1503564395.0,286046996.4,N
1503564395.9,286046996.4,N
1503564415.8,286046998.0,N
1503564435.6,286046998.0,N
1503564455.4,286046996.6,N
1503564475.3,286046998.0,N
1503564495.1,286046995.7,N
1503564496.0,286046995.7,N
1503564515.8,286046995.2,P
1503564535.7,286046996.9,P
1503564555.5,286046999.0,N
1503564575.3,286046995.0,P
1503564595.2,286046999.5,N
1503564615.0,286046999.1,N
1503564615.9,286046999.1,N
1503564635.7,286046999.1,N
1503564655.6,286046998.7,N
1503564675.4,286047001.0,N
1503564695.2,286047000.6,N
1503564715.1,286047000.2,N
1503564716.0,286047000.2,N
1503564735.8,286046998.5,N
1503564755.6,286046998.4,N
1503564775.5,286047000.4,N
1503564795.3,286047001.1,N
1503564815.1,286046998.9,N
1503564835.9,286046998.8,N
1503564855.7,286047001.0,N
1503564875.5,286046998.9,N
1503564895.3,286046996.9,N
1503564915.2,286046995.5,N
1503564935.0,286046994.2,P
1503564935.9,286046994.2,N
1503564955.8,286046997.5,N
1503564975.6,286046996.3,N
1503564995.4,286046994.2,P
1503565015.3,286046998.0,N
1503565035.1,286046998.8,N
1503565036.0,286046998.8,N
1503565055.8,286047000.9,N
1503565075.7,286047000.5,N
1503565095.5,286047001.2,N
1503565115.3,286047000.8,N
1503565135.2,286047000.9,N
1503565155.9,286046998.5,N
1503565175.7,286046998.4,N
1503565195.5,286046996.8,N
